[[{"header":{"parameterUnit":"m.s-1","parameterCategory":1,"la1":30.2991,"la2":30.254,"lo1":-89.0895,"lo2":-89.0444,"dy":0.0017,"dx":0.0017,"nx":28,"ny":28,"refTime":"2026-02-02T09:00:00:Z","depth":0,"parameterNumber":2,"parameterNumberName":"U-component_of_WINDS"},"data":[0,0,0,0,0,0,0,0,0,0,0,0,0,0,0,0,0,0,0,0,0,0,0,0,0,0,0,0,0,0,0,0,0,0,0,0,0,0,0,0,0,0,0,0,0,0,0,0,0,0,0,0,0,0,0,0,0,0,3.2983,3.2984,0,3.309,3.3091,3.3093,3.3055,3.3053,3.3051,3.3048,3.3156,3.3161,3.3166,0,0,0,0,0,0,0,0,0,0,0,0,0,3.2741,3.2746,3.2983,3.2984,3.2985,3.309,3.3091,3.3093,3.3056,3.3053,3.305,3.3047,3.3155,3.3161,3.3167,0,0,0,0,0,0,0,0,0,0,0,0,0,3.2847,3.2748,3.2982,3.2979,3.298,3.309,3.3091,3.3093,3.3056,3.3053,3.3049,3.3046,3.3153,3.316,3.3168,3.3286,0,0,3.3191,3.3194,0,0,0,0,0,0,0,0,3.2841,3.2856,3.2978,3.298,3.2981,3.3056,3.3046,3.3158,3.3057,3.3027,3.3048,3.3044,3.3126,3.3135,3.3163,3.3291,3.3295,3.3192,3.3196,3.3199,3.3202,0,0,0,0,0,0,0,3.2834,3.2851,3.3025,3.298,3.2982,3.2971,3.2983,3.3067,3.3095,3.303,3.3027,3.3041,3.3126,3.3156,3.3165,3.3297,3.3191,3.3198,3.3203,3.3206,3.3523,3.3526,0,0,0,0,0,0,3.2826,3.2845,3.3022,3.3028,3.2901,3.2979,3.2991,3.3035,3.3094,3.31,3.3044,3.3039,3.3145,3.3157,3.3169,3.3308,3.3199,3.3207,3.3211,3.3519,3.3524,3.3528,0,0,0,0,0,0,3.2821,3.2843,3.3017,3.2936,3.2958,3.2987,3.3036,3.3039,3.3069,3.3105,3.3109,3.307,3.3142,3.3158,3.3256,3.3311,3.321,3.3217,3.3514,3.352,3.3526,3.3589,0,0,0,0,0,0,3.2815,3.2841,3.2887,3.2938,3.2962,3.3104,3.304,3.3044,3.3083,3.3077,3.313,3.3135,3.3141,3.3245,3.3264,3.332,3.3223,3.351,3.3517,3.3524,3.3582,3.3596,3.3608,0,0,0,0,0,3.2806,3.2901,3.289,3.2911,3.3021,3.3107,3.3121,3.3126,3.3088,3.3133,3.3155,3.3134,3.3303,3.3255,3.3276,3.3335,3.3506,3.3515,3.3523,3.3576,3.3593,3.3608,0,0,0,0,0,0,3.2856,3.2907,3.2896,3.301,3.3054,3.3101,3.3158,3.3145,3.3201,3.3193,3.3196,3.3208,3.3308,3.3332,3.3278,3.3451,3.3399,3.3412,3.3431,3.3448,3.3461,3.3452,3.3229,0,0,0,0,0,3.288,3.2947,3.2988,3.3085,3.3108,3.313,3.3168,3.3167,3.3213,3.3232,3.3261,3.3306,3.3369,3.341,3.347,3.3586,3.3595,3.3637,3.365,3.366,3.3671,3.373,3.3748,3.3556,3.3556,3.3556,0,0,3.2931,3.2967,3.3009,3.3096,3.313,3.3198,3.3146,3.322,3.327,3.3243,3.3336,3.336,3.341,3.3516,3.3564,3.3539,3.3726,3.3672,3.368,3.3684,3.3741,3.3759,3.3775,3.3562,3.3561,3.356,0,0,3.3057,3.3093,3.3175,3.3211,3.3264,3.3277,3.3297,3.3346,3.336,3.3454,3.3435,3.3493,3.3603,3.3638,3.367,3.3808,3.3789,3.3828,3.3895,3.3953,3.3968,3.3981,3.4027,3.4044,3.3839,3.3839,3.3839,0,3.3112,3.3214,3.3219,3.3295,3.3332,3.3312,3.3394,3.3428,3.3498,3.3523,3.3494,3.3629,3.3662,3.3774,3.3807,3.3836,3.3856,3.382,3.3966,3.3979,3.3992,3.4035,3.4053,3.3843,3.3842,3.3842,3.3842,0,3.3278,3.335,3.341,3.3477,3.3522,3.3601,3.3616,3.366,3.3656,3.3672,3.3766,3.3805,3.387,3.3898,3.3895,3.4009,3.3991,3.3965,3.3911,3.4014,3.4055,3.4072,3.3849,3.3847,3.3846,3.3845,0,0,3.3438,3.3506,3.3528,3.3557,3.3614,3.3668,3.3745,3.381,3.3846,3.3895,3.3957,3.4049,3.4024,3.4061,3.4061,3.4113,3.4215,3.4079,3.408,3.41,3.4339,3.4357,3.4376,3.4204,3.4207,3.421,3.4334,0,3.3565,3.3701,3.3707,3.3829,3.3893,3.3874,3.3941,3.3981,3.3998,3.4054,3.4072,3.4136,3.41,3.4121,3.4171,3.4192,3.4262,3.4183,3.4259,3.4262,3.4244,3.4398,3.4418,3.4533,3.435,3.4353,3.4355,0,3.3733,3.3786,3.3915,3.396,3.3987,3.4046,3.4105,3.4159,3.4204,3.4213,3.4253,3.4246,3.4322,3.4269,3.4372,3.4318,3.435,3.4364,3.4369,3.4374,3.4312,3.4404,3.4571,3.4587,3.4381,3.4379,3.4377,0,3.3831,3.3936,3.4025,3.4051,3.4107,3.4149,3.4174,3.4216,3.4253,3.4304,3.4328,3.4388,3.442,3.4465,3.4473,3.4434,3.4576,3.4524,3.4582,3.4582,3.4611,3.4608,3.4781,3.4637,3.4637,3.4636,3.4636,0,3.3971,3.405,3.407,3.4125,3.4211,3.4217,3.4302,3.4324,3.4361,3.4419,3.4407,3.4461,3.447,3.4525,3.4532,3.4615,3.463,3.4637,3.4637,3.4637,3.4635,3.4655,3.4646,3.4641,3.464,3.4639,3.4638,0,3.4095,3.4112,3.4208,3.4253,3.4266,3.4327,3.4365,3.4416,3.4432,3.4504,3.4521,3.4545,3.461,3.4623,3.47,3.4704,3.4801,3.4795,3.4786,3.4784,3.4841,3.4834,3.503,3.5055,3.4897,3.4899,3.49,0,3.4182,3.4241,3.4293,3.433,3.4357,3.4418,3.4456,3.4464,3.4504,3.4559,3.4603,3.4667,3.4717,3.482,3.4843,3.4901,3.4894,3.4959,3.4903,3.4899,3.4891,3.4886,3.489,3.4969,3.4971,3.4972,3.4973,0,3.4332,3.4337,3.4393,3.4452,3.4498,3.4545,3.4589,3.462,3.4633,3.4678,3.4744,3.4783,3.4861,3.4922,3.498,3.5004,3.499,3.4991,3.5007,3.5005,3.4995,3.4998,3.4811,3.4986,3.4985,3.4984,3.4983,3.4982,3.4438,3.4489,3.4532,3.4594,3.4628,3.4669,3.4719,3.4741,3.4796,3.4859,3.4861,3.4931,3.4973,3.5048,3.5076,3.513,3.511,3.5134,3.5139,3.5144,3.5148,3.499,3.5141,3.5141,3.514,3.514,3.514,0,3.4585,3.4612,3.4669,3.473,3.4779,3.4763,3.4811,3.4851,3.4914,3.4954,3.5004,3.5078,3.5137,3.5165,3.5223,3.5261,3.5256,3.5276,3.5271,3.5276,3.5165,3.5143,3.5279,3.5279,3.5279,3.5279,3.5279,3.5278,3.4667,3.4751,3.4761,3.4862,3.4888,3.4957,3.4985,3.5022,3.5054,3.5137,3.5187,3.5205,3.5239,3.5299,3.5352,3.5359,3.5379,3.5401,3.5404,3.5299,3.5285,3.5271,3.5251,3.5407,3.5407,3.5511,3.5512,3.5513]},{"header":{"parameterUnit":"m.s-1","parameterCategory":1,"la1":30.2991,"la2":30.254,"lo1":-89.0895,"lo2":-89.0444,"dy":0.0017,"dx":0.0017,"nx":28,"ny":28,"refTime":"2026-02-02T09:00:00:Z","depth":0,"parameterNumber":3,"parameterNumberName":"V-component_of_WINDS"},"data":[0,0,0,0,0,0,0,0,0,0,0,0,0,0,0,0,0,0,0,0,0,0,0,0,0,0,0,0,0,0,0,0,0,0,0,0,0,0,0,0,0,0,0,0,0,0,0,0,0,0,0,0,0,0,0,0,0,0,4.0301,4.0303,0,4.0471,4.0473,4.0475,4.0476,4.0474,4.0471,4.0469,4.064,4.0646,4.0653,0,0,0,0,0,0,0,0,0,0,0,0,0,3.9972,3.9978,4.0301,4.0303,4.0305,4.0471,4.0473,4.0475,4.0476,4.0473,4.0471,4.0468,4.0638,4.0645,4.0653,0,0,0,0,0,0,0,0,0,0,0,0,0,4.0126,3.998,4.0301,4.0326,4.0329,4.047,4.0473,4.0476,4.0477,4.0473,4.047,4.0467,4.0635,4.0645,4.0654,4.078,0,0,4.0684,4.0689,0,0,0,0,0,0,0,0,4.0117,4.0138,4.032,4.0324,4.0329,4.0449,4.042,4.0578,4.0477,4.0421,4.0469,4.0465,4.0579,4.0593,4.0632,4.0788,4.0796,4.0685,4.0691,4.0695,4.0698,0,0,0,0,0,0,0,4.0107,4.0131,4.0368,4.0322,4.0328,4.0327,4.0345,4.045,4.0516,4.0425,4.0426,4.0446,4.058,4.0622,4.0636,4.0798,4.0685,4.0694,4.07,4.0704,4.1065,4.1068,0,0,0,0,0,0,4.0091,4.0122,4.0363,4.0373,4.0213,4.0335,4.0356,4.0414,4.0515,4.0527,4.0449,4.0446,4.0607,4.0624,4.0642,4.0795,4.0695,4.0705,4.071,4.1061,4.1065,4.1069,0,0,0,0,0,0,4.0084,4.0113,4.0356,4.0248,4.0279,4.0345,4.0409,4.0419,4.0461,4.0532,4.0544,4.048,4.0605,4.0628,4.0746,4.0801,4.0709,4.0718,4.1057,4.1062,4.1067,4.1103,0,0,0,0,0,0,4.0075,4.011,4.016,4.0249,4.0284,4.0459,4.0413,4.0424,4.0478,4.0476,4.0565,4.0576,4.0604,4.0731,4.0756,4.0813,4.0726,4.1052,4.1059,4.1066,4.1097,4.1109,4.1119,0,0,0,0,0,4.0063,4.0163,4.0163,4.0192,4.0348,4.0462,4.0482,4.0514,4.0483,4.0532,4.0578,4.0573,4.0791,4.0743,4.0771,4.0832,4.1049,4.1057,4.1065,4.1092,4.1107,4.1119,0,0,0,0,0,0,4.0078,4.0175,4.0176,4.0308,4.0376,4.0462,4.0525,4.0528,4.0606,4.0601,4.0635,4.0655,4.0772,4.0814,4.0759,4.0958,4.0916,4.093,4.0927,4.0941,4.0952,4.0939,4.0734,0,0,0,0,0,4.0097,4.0182,4.0262,4.037,4.0405,4.0459,4.051,4.0528,4.0601,4.0629,4.0684,4.0753,4.0837,4.0891,4.0973,4.1103,4.1121,4.1158,4.1169,4.1178,4.119,4.126,4.1277,4.1097,4.1097,4.1096,0,0,4.0136,4.0199,4.0251,4.0375,4.043,4.0516,4.0484,4.0577,4.064,4.0643,4.0758,4.08,4.0879,4.1004,4.1061,4.1042,4.1244,4.1189,4.1195,4.1202,4.127,4.1287,4.1302,4.1102,4.1101,4.11,0,0,4.0251,4.0309,4.0405,4.0461,4.0546,4.0581,4.0604,4.0689,4.0718,4.0834,4.0837,4.0912,4.1057,4.1113,4.116,4.1295,4.1293,4.1321,4.1378,4.1446,4.146,4.1473,4.152,4.1536,4.1332,4.1332,4.1332,0,4.0289,4.0421,4.0453,4.0547,4.06,4.0608,4.0704,4.0757,4.0863,4.0899,4.0876,4.1057,4.1111,4.1247,4.128,4.1319,4.1345,4.1311,4.1456,4.1469,4.1481,4.1526,4.1544,4.1335,4.1335,4.1334,4.1334,0,4.0462,4.0553,4.062,4.0723,4.0784,4.0879,4.0924,4.0982,4.0995,4.1032,4.1148,4.1214,4.1307,4.1341,4.1355,4.148,4.1465,4.1449,4.1407,4.1501,4.1543,4.1561,4.1339,4.1338,4.1337,4.1336,0,0,4.0592,4.0712,4.0736,4.0782,4.0876,4.0946,4.104,4.1133,4.1181,4.1253,4.1332,4.1453,4.1438,4.1492,4.1511,4.1571,4.1672,4.1548,4.155,4.1567,4.1812,4.1823,4.1843,4.1672,4.1675,4.1678,4.1805,0,4.0716,4.0884,4.0916,4.1062,4.1145,4.1153,4.1234,4.1299,4.1336,4.1411,4.1451,4.1536,4.1511,4.1543,4.1603,4.1647,4.1722,4.1639,4.1743,4.1746,4.1722,4.1865,4.1878,4.1995,4.1822,4.1825,4.1827,0,4.0884,4.0962,4.1116,4.1198,4.1234,4.1306,4.1393,4.1465,4.1539,4.1561,4.1621,4.1633,4.1729,4.1683,4.1814,4.1757,4.1801,4.1829,4.1834,4.1845,4.1792,4.1878,4.2033,4.205,4.1854,4.1852,4.185,0,4.0962,4.1105,4.1215,4.1255,4.1353,4.1404,4.1447,4.1517,4.157,4.1646,4.168,4.1765,4.1812,4.1876,4.1911,4.1874,4.2039,4.1996,4.2059,4.2058,4.2092,4.209,4.2255,4.2123,4.2122,4.2122,4.2122,0,4.1097,4.1191,4.1251,4.1319,4.1424,4.1459,4.1561,4.1602,4.1665,4.174,4.1751,4.1821,4.1862,4.1937,4.1964,4.2068,4.2089,4.2108,4.2114,4.2107,4.2104,4.2136,4.2128,4.2127,4.2126,4.2125,4.2124,0,4.1201,4.1246,4.1366,4.1449,4.1472,4.1546,4.1616,4.1681,4.1717,4.1812,4.1836,4.1893,4.1982,4.2022,4.2132,4.215,4.2267,4.2268,4.2243,4.2245,4.2305,4.2298,4.2496,4.2523,4.2373,4.2375,4.2376,0,4.1284,4.1356,4.1447,4.1499,4.1543,4.1626,4.168,4.1717,4.1773,4.1861,4.1915,4.2005,4.2078,4.2219,4.2269,4.2353,4.2355,4.2418,4.2367,4.2357,4.2354,4.2349,4.2356,4.2427,4.2429,4.243,4.2431,0,4.1426,4.1444,4.1523,4.161,4.1675,4.1744,4.1813,4.1854,4.1901,4.1963,4.2054,4.2111,4.2223,4.2311,4.2398,4.244,4.2443,4.2447,4.2465,4.2458,4.244,4.2449,4.2267,4.2442,4.2441,4.244,4.2439,4.2439,4.1521,4.1585,4.1659,4.1746,4.1801,4.1865,4.193,4.1975,4.2052,4.2147,4.2163,4.226,4.233,4.2446,4.2492,4.2567,4.2552,4.2579,4.2586,4.2592,4.2594,4.2429,4.2583,4.2582,4.2582,4.2582,4.2582,0,4.1663,4.1711,4.179,4.1886,4.1954,4.1952,4.2027,4.2083,4.2169,4.2235,4.2307,4.2411,4.2496,4.2553,4.2638,4.2687,4.2691,4.2708,4.2705,4.2714,4.2604,4.2579,4.2704,4.2704,4.2704,4.2704,4.2704,4.2704,4.1744,4.1852,4.1879,4.2014,4.2061,4.2157,4.2199,4.2257,4.2309,4.2426,4.2497,4.2534,4.2595,4.2685,4.2762,4.2777,4.2807,4.2825,4.2839,4.2735,4.2722,4.271,4.2686,4.2832,4.2832,4.2942,4.2943,4.2944]}]]